Location: Vale
(35.4830°N, 81.3830°W)
Time: 04:44:28
(UTC-04:00)

Amateur Radio Satellites - All Passes

Search period start: 28 August 2016 04:14
Search period end: 29 August 2016 04:14
Location: Vale, 35.4830°N, 81.3830°W

Satellite Date Start Highest point End Downlink Frequencies (MHz)
Time Altitude Azimuth
STARS 28 Aug 04:16:26 04:19:50 22° 69° (ENE) 04:23:15 437.465
Gurwin Techsat 1B 28 Aug 04:19:49 04:24:32 33° 290° (WNW) 04:29:15 435.225
ITAMSAT 1 28 Aug 04:21:28 04:26:40 74° 103° (ESE) 04:31:50 435.822/435.867
ITUPSAT 1 28 Aug 04:27:03 04:29:38 14° 267° (W) 04:32:13 437.325
Cosmos 2491 28 Aug 04:29:17 04:34:03 15° 65° (ENE) 04:38:46 435.465 / 435.565
AO-7 28 Aug 04:57:11 05:05:24 62° 104° (ESE) 05:13:34 29.400- 29.500
CUBESAT XI-V 28 Aug 05:09:33 05:13:21 26° 70° (ENE) 05:17:11 437.345
KKS-1 28 Aug 05:17:01 05:21:05 34° 262° (W) 05:25:11 437.445
MOZHAYETS 4 28 Aug 05:26:02 05:29:36 22° 265° (W) 05:33:10
PHONESAT 2.4 28 Aug 05:31:47 05:34:32 32° 7° (N) 05:37:18 2401.200-2431.200
AO-85 28 Aug 05:34:19 05:39:32 55° 116° (ESE) 05:44:33 145.980
YUBILEINY 28 Aug 05:39:43 05:45:38 20° 81° (E) 05:51:33 435.215
STARS 28 Aug 05:52:10 05:56:00 28° 263° (W) 05:59:51 437.465
ITAMSAT 1 28 Aug 06:03:31 06:05:27 12° 298° (WNW) 06:07:23 435.822/435.867
RS-15 28 Aug 06:05:13 06:11:57 16° 345° (NNW) 06:18:49 29.354- 29.394
Cosmos 2491 28 Aug 06:23:15 06:32:08 86° 84° (E) 06:40:59 435.465 / 435.565
HORYU 2 28 Aug 06:32:49 06:37:15 87° 103° (ESE) 06:41:39 437.375
GOMX 1 28 Aug 06:38:38 06:42:12 18° 91° (E) 06:45:38 467.674
STRAND 1 28 Aug 06:40:26 06:43:01 14° 64° (ENE) 06:45:35 437.568
LilacSat-2 28 Aug 06:43:05 06:45:04 14° 93° (E) 06:47:04 437.200
CUBESAT XI-V 28 Aug 06:46:50 06:50:37 25° 264° (W) 06:54:27 437.345
AO-7 28 Aug 06:50:57 06:57:34 27° 301° (WNW) 07:04:09 29.400- 29.500
Cubesat XI-IV 28 Aug 06:53:17 06:57:30 23° 95° (E) 07:01:41 437.490
BRITE-PL 28 Aug 07:03:03 07:08:46 75° 101° (ESE) 07:14:17 437.365/2234.400
NOAA 15 28 Aug 07:04:20 07:09:19 40° 99° (E) 07:14:17 137.62
CUTE-I 28 Aug 07:04:39 07:09:19 31° 97° (E) 07:13:58 437.470
PHONESAT 2.4 28 Aug 07:08:04 07:11:04 79° 203° (SSW) 07:14:03 2401.200-2431.200
AO-85 28 Aug 07:16:28 07:20:17 20° 310° (NW) 07:23:59 145.980
Cosmos 2504 28 Aug 07:30:16 07:38:01 41° 89° (E) 07:45:20 435.465 / 435.565
YUBILEINY 28 Aug 07:32:37 07:41:26 73° 278° (W) 07:50:17 435.215
NOAA 18 28 Aug 07:47:57 07:53:25 71° 103° (ESE) 07:58:50 137.9125
GOMX 1 28 Aug 08:15:21 08:20:31 48° 287° (WNW) 08:25:24 467.674
LilacSat-2 28 Aug 08:16:06 08:19:26 30° 287° (WNW) 08:22:46 437.200
STRAND 1 28 Aug 08:16:35 08:21:37 62° 259° (WSW) 08:26:41 437.568
DOVE 4 28 Aug 08:19:33 08:24:36 86° 104° (ESE) 08:29:18 437.250
Cosmos 2491 28 Aug 08:22:53 08:27:43 16° 281° (WNW) 08:32:33 435.465 / 435.565
RS-15 28 Aug 08:23:46 08:31:48 19° 23° (NNE) 08:39:49 29.354- 29.394
ISS 28 Aug 08:25:47 08:28:48 36° 133° (SE) 08:31:51 145.825
HO-68 28 Aug 08:26:34 08:32:27 27° 96° (E) 08:38:17 435.675
SO-50 28 Aug 08:31:17 08:34:56 23° 50° (NE) 08:38:31 436.795
Cubesat XI-IV 28 Aug 08:32:45 08:37:36 37° 290° (WNW) 08:42:26 437.490
BRITE-PL 28 Aug 08:43:36 08:46:28 14° 297° (WNW) 08:49:19 437.365/2234.400
NOAA 15 28 Aug 08:44:45 08:48:48 23° 294° (WNW) 08:52:51 137.62
CUTE-I 28 Aug 08:44:45 08:49:14 28° 292° (WNW) 08:53:43 437.470
PHONESAT 2.4 28 Aug 08:45:51 08:47:03 12° 217° (SW) 08:48:14 2401.200-2431.200
CINEMA 3 28 Aug 08:56:49 09:01:13 54° 100° (E) 09:05:24 145.822/145.860
BEESAT 3 28 Aug 09:06:14 09:08:23 14° 109° (ESE) 09:10:34 437.485
SEEDS 28 Aug 09:10:06 09:14:03 38° 98° (E) 09:18:00 437.485
UWE-3 28 Aug 09:10:20 09:11:21 11° 92° (E) 09:12:23 435.000/436.395/437.385
CUBEBUG 2 28 Aug 09:12:05 09:15:05 19° 94° (E) 09:18:02 437.445
Cosmos 2504 28 Aug 09:23:38 09:31:19 37° 284° (WNW) 09:38:35 435.465 / 435.565
PRISM 28 Aug 09:26:00 09:30:04 82° 79° (ENE) 09:34:11 437.425
NOAA 18 28 Aug 09:30:45 09:33:24 14° 298° (WNW) 09:36:04 137.9125
CANX-2 28 Aug 09:32:34 09:36:45 62° 284° (WNW) 09:40:57 2200.000
YUBILEINY 28 Aug 09:36:46 09:39:49 12° 298° (WNW) 09:42:53 435.215
CUTE 1.7 + AOD 2 28 Aug 09:38:34 09:42:45 62° 285° (WNW) 09:46:56 437.475
AAUSAT CUBESAT 2 28 Aug 09:39:37 09:43:38 45° 99° (E) 09:47:38 437.432
COMPASS 1 28 Aug 09:48:06 09:52:18 78° 102° (ESE) 09:56:29 437.405
AIST 1 28 Aug 09:52:36 09:56:54 69° 95° (E) 10:01:16
TIGRISAT 28 Aug 09:58:03 10:00:57 17° 67° (ENE) 10:03:48 435.000
ISS 28 Aug 10:02:46 10:05:21 21° 328° (NNW) 10:07:56 145.825
SO-50 28 Aug 10:11:21 10:15:28 34° 247° (WSW) 10:19:28 436.795
CUSAT 1 28 Aug 10:12:01 10:17:51 30° 76° (ENE) 10:24:28 437.405
HO-68 28 Aug 10:13:29 10:20:20 50° 291° (WNW) 10:27:09 435.675
BEESAT 2 28 Aug 10:24:50 10:28:43 63° 117° (ESE) 10:32:39 435.950
UNISAT 6 28 Aug 10:25:24 10:29:35 35° 72° (ENE) 10:33:43 437.425
Oscar 11 28 Aug 10:26:55 10:31:13 63° 101° (E) 10:35:29 145.826/435.025
FUNcube-1 28 Aug 10:35:15 10:39:24 73° 102° (ESE) 10:43:30 145.935
RS-15 28 Aug 10:36:03 10:48:08 54° 52° (NE) 10:59:55 29.354- 29.394
CINEMA 3 28 Aug 10:36:09 10:37:46 12° 296° (WNW) 10:39:23 145.822/145.860
BEESAT 3 28 Aug 10:42:04 10:45:42 37° 304° (NW) 10:49:23 437.485
UWE-3 28 Aug 10:44:04 10:48:05 47° 286° (WNW) 10:52:02 435.000/436.395/437.385
SEEDS 28 Aug 10:47:00 10:49:23 15° 292° (WNW) 10:51:47 437.485
CUBEBUG 2 28 Aug 10:48:07 10:51:42 28° 289° (WNW) 10:55:15 437.445
JUGNU 28 Aug 10:55:54 10:58:15 12° 168° (SSE) 11:00:36 437.505
ZACube-1 28 Aug 10:57:11 11:01:14 54° 285° (WNW) 11:05:16 437.345
ANTELSAT 28 Aug 11:01:50 11:06:28 89° 259° (WSW) 11:11:01 437.575/2403.000
POPSAT HIP 1 28 Aug 11:04:08 11:05:36 12° 65° (ENE) 11:07:04 437.405
DELFI C3 28 Aug 11:13:18 11:17:19 88° 280° (W) 11:21:20 145.870
DANDE 28 Aug 11:13:59 11:19:16 36° 79° (E) 11:25:50 436.750
AAUSAT CUBESAT 2 28 Aug 11:16:53 11:18:41 13° 293° (WNW) 11:20:28 437.432
PCSat 28 Aug 11:20:39 11:24:47 23° 106° (ESE) 11:28:56 145.827
JAS-2 28 Aug 11:27:36 11:29:44 12° 60° (ENE) 11:31:56 435.910
DUCHIFAT 1 28 Aug 11:29:12 11:32:20 20° 69° (ENE) 11:35:29 145.980
QB50P2 28 Aug 11:32:18 11:35:54 27° 71° (ENE) 11:39:30 145.880/145.840
TIGRISAT 28 Aug 11:32:55 11:37:17 41° 261° (W) 11:41:35 435.000
POLYITAN 1 28 Aug 11:34:47 11:38:24 27° 71° (ENE) 11:42:03 437.675
HUMSAT D 28 Aug 11:37:47 11:41:53 81° 104° (ESE) 11:45:59 437.325/437.525
AUBIESAT-1 28 Aug 11:42:15 11:43:13 11° 95° (E) 11:44:11 437.475
NANOSAT C BR1 28 Aug 11:42:37 11:46:23 31° 72° (ENE) 11:50:09 145.865
M-CUBED/EXP-1 PRIME 28 Aug 11:47:06 11:49:42 17° 97° (E) 11:52:12 437.505
GONETS M04 28 Aug 11:49:14 11:56:49 34° 85° (E) 12:04:25
CUSAT 1 28 Aug 11:53:25 11:59:53 48° 266° (W) 12:07:19 437.405
UNISAT 6 28 Aug 12:03:05 12:06:19 19° 265° (W) 12:09:33 437.425
BEESAT 2 28 Aug 12:05:41 12:06:56 11° 313° (NW) 12:08:12 435.950
Oscar 11 28 Aug 12:06:34 12:06:46 10° 295° (WNW) 12:06:57 145.826/435.025
BUGSAT 1 28 Aug 12:20:47 12:24:36 33° 72° (ENE) 12:28:25 437.445
Cosmos 2499 28 Aug 12:25:41 12:33:25 46° 90° (E) 12:40:38 435.465 / 435.565
QB50P1 28 Aug 12:26:30 12:30:46 71° 259° (WSW) 12:35:02 145.935-145.965
ESTCUBE 1 28 Aug 12:29:01 12:33:21 44° 99° (E) 12:37:41 437.505/2401.250
AISAT 28 Aug 12:34:53 12:38:41 27° 97° (E) 12:42:25 437.250
POPSAT HIP 1 28 Aug 12:36:41 12:40:52 53° 260° (W) 12:45:04 437.405
UKube-1 28 Aug 12:41:13 12:43:35 14° 94° (E) 12:45:55 .
AIST 2 28 Aug 12:41:48 12:45:52 75° 118° (ESE) 12:49:59 435.215
JUGNU 28 Aug 12:42:47 12:46:31 17° 178° (S) 12:50:13 437.505
Oscar 19 28 Aug 12:44:42 12:46:55 13° 63° (ENE) 12:49:09 437.125/150
RS-15 28 Aug 12:49:04 13:00:19 44° 253° (WSW) 13:11:21 29.354- 29.394
DANDE 28 Aug 12:56:43 13:01:55 33° 266° (W) 13:08:16 436.750
PCSat 28 Aug 13:02:46 13:07:52 42° 302° (WNW) 13:13:00 145.827
DUCHIFAT 1 28 Aug 13:04:08 13:07:49 28° 263° (W) 13:11:30 145.980
QB50P2 28 Aug 13:08:22 13:11:38 21° 265° (W) 13:14:55 145.880/145.840
JAS-2 28 Aug 13:08:56 13:14:04 68° 258° (WSW) 13:19:30 435.910
POLYITAN 1 28 Aug 13:10:54 13:14:09 21° 265° (W) 13:17:25 437.675
AUBIESAT-1 28 Aug 13:14:13 13:17:59 42° 292° (WNW) 13:21:28 437.475
NANOSAT C BR1 28 Aug 13:19:10 13:22:07 18° 266° (W) 13:25:05 145.865
M-CUBED/EXP-1 PRIME 28 Aug 13:20:48 13:24:18 28° 295° (WNW) 13:27:34 437.505
VELOX 1 28 Aug 13:21:37 13:26:06 90° 290° (WNW) 13:30:32 145.980
CUBEBUG 1 28 Aug 13:21:50 13:26:16 70° 284° (WNW) 13:30:38 437.445
50 SAT 28 Aug 13:25:46 13:29:24 65° 284° (WNW) 13:33:01 437.505
SPROUT 28 Aug 13:36:00 13:40:16 66° 101° (E) 13:44:28 437.525
DX 1 28 Aug 13:36:26 13:40:49 88° 94° (E) 13:45:11 434.975-435.025
GONETS M04 28 Aug 13:45:02 13:53:17 46° 283° (WNW) 14:01:40
TISAT 1 28 Aug 13:53:18 13:56:18 19° 95° (E) 13:59:16 437.305
BUGSAT 1 28 Aug 13:57:13 14:00:01 17° 266° (W) 14:02:49 437.445
Gurwin Techsat 1B 28 Aug 13:58:19 14:02:56 31° 69° (ENE) 14:07:35 435.225
O/OREOS (USA 219) 28 Aug 14:03:35 14:07:52 46° 106° (ESE) 14:12:12 437.305
AO-7 28 Aug 14:06:30 14:09:31 12° 50° (NE) 14:12:32 29.400- 29.500
ESTCUBE 1 28 Aug 14:07:05 14:09:46 16° 293° (WNW) 14:12:26 437.505/2401.250
AO-85 28 Aug 14:10:26 14:13:23 18° 49° (NE) 14:16:11 145.980
AISAT 28 Aug 14:11:26 14:14:59 24° 291° (WNW) 14:18:31 437.250
UKube-1 28 Aug 14:15:42 14:19:46 41° 287° (WNW) 14:23:49 .
Cosmos 2499 28 Aug 14:19:35 14:26:36 31° 285° (WNW) 14:33:14 435.465 / 435.565
Oscar 19 28 Aug 14:20:28 14:25:35 70° 257° (WSW) 14:30:46 437.125/150
SRMSAT 28 Aug 14:21:25 14:24:50 16° 174° (S) 14:28:15 437.500
AIST 2 28 Aug 14:24:00 14:24:51 11° 315° (NW) 14:25:42 435.215
JUGNU 28 Aug 14:31:32 14:34:46 15° 188° (S) 14:38:01 437.505
ITUPSAT 1 28 Aug 14:51:45 14:54:38 16° 94° (E) 14:57:30 437.325
ISS 28 Aug 14:56:30 14:58:37 16° 29° (NNE) 15:00:42 145.825
SWISSCUBE 28 Aug 15:23:03 15:27:31 40° 99° (E) 15:32:00 437.505
TISAT 1 28 Aug 15:28:19 15:31:56 29° 289° (WNW) 15:35:32 437.305
ITAMSAT 1 28 Aug 15:36:20 15:41:31 83° 77° (ENE) 15:46:43 435.822/435.867
Gurwin Techsat 1B 28 Aug 15:38:19 15:42:49 28° 264° (W) 15:47:21 435.225
BEESAT 28 Aug 15:39:56 15:44:37 56° 101° (E) 15:49:17 436.000
O/OREOS (USA 219) 28 Aug 15:44:58 15:47:31 15° 302° (WNW) 15:50:07 437.305
AO-85 28 Aug 15:50:11 15:53:56 34° 247° (WSW) 15:57:29 145.980
AO-7 28 Aug 15:52:27 16:00:41 65° 69° (ENE) 16:08:54 29.400- 29.500
SRMSAT 28 Aug 16:09:39 16:13:15 17° 184° (S) 16:16:51 437.500
ITUPSAT 1 28 Aug 16:28:06 16:32:38 45° 288° (WNW) 16:37:10 437.325
ISS 28 Aug 16:32:06 16:35:20 60° 225° (SW) 16:38:33 145.825
SWISSCUBE 28 Aug 17:01:45 17:04:59 18° 293° (WNW) 17:08:13 437.505
KKS-1 28 Aug 17:10:29 17:14:52 56° 101° (E) 17:19:12 437.445
BEESAT 28 Aug 17:19:32 17:21:53 14° 295° (WNW) 17:24:15 436.000
MOZHAYETS 4 28 Aug 17:22:43 17:27:17 77° 284° (WNW) 17:31:52
Cosmos 2491 28 Aug 17:27:30 17:33:05 19° 80° (E) 17:38:41 435.465 / 435.565
HORYU 2 28 Aug 17:27:34 17:31:55 54° 74° (ENE) 17:36:16 437.375
NOAA 18 28 Aug 17:34:41 17:36:48 12° 61° (ENE) 17:38:55 137.9125
STARS 28 Aug 17:43:50 17:48:11 63° 101° (E) 17:52:30 437.465
GOMX 1 28 Aug 17:44:09 17:46:54 15° 63° (ENE) 17:49:44 467.674
YUBILEINY 28 Aug 17:46:52 17:55:19 49° 78° (ENE) 18:03:38 435.215
AO-7 28 Aug 17:47:27 17:53:52 24° 264° (W) 18:00:20 29.400- 29.500
SRMSAT 28 Aug 18:00:07 18:01:38 11° 194° (SSW) 18:03:08 437.500
BRITE-PL 28 Aug 18:10:31 18:15:12 58° 74° (ENE) 18:20:19 437.365/2234.400
Cubesat XI-IV 28 Aug 18:12:16 18:16:50 30° 69° (ENE) 18:21:25 437.490
NOAA 15 28 Aug 18:21:22 18:26:23 47° 72° (ENE) 18:31:25 137.62
CUTE-I 28 Aug 18:23:26 18:28:20 38° 70° (ENE) 18:33:13 437.470
CUBESAT XI-V 28 Aug 18:45:14 18:49:58 83° 283° (WNW) 18:54:41 437.345
BEESAT 2 28 Aug 18:46:31 18:49:04 16° 50° (NE) 18:51:36 435.950
KKS-1 28 Aug 18:49:09 18:50:54 12° 295° (WNW) 18:52:38 437.445
LilacSat-2 28 Aug 18:54:16 18:58:07 77° 77° (ENE) 19:01:56 437.200
HO-68 28 Aug 18:54:22 18:58:15 16° 57° (ENE) 19:02:08 435.675
BEESAT 3 28 Aug 19:01:42 19:05:30 43° 57° (ENE) 19:09:16 437.485
HORYU 2 28 Aug 19:07:18 19:08:44 11° 268° (W) 19:10:10 437.375
NOAA 18 28 Aug 19:11:09 19:16:42 82° 256° (WSW) 19:22:16 137.9125
Cosmos 2504 28 Aug 19:19:04 19:26:15 67° 82° (E) 19:33:22 435.465 / 435.565
GOMX 1 28 Aug 19:19:19 19:24:17 63° 260° (W) 19:29:36 467.674
Cosmos 2491 28 Aug 19:20:10 19:28:52 76° 277° (W) 19:37:39 435.465 / 435.565
DOVE 4 28 Aug 19:20:46 19:25:48 62° 75° (ENE) 19:31:03 437.250
STARS 28 Aug 19:23:08 19:23:57 10° 296° (WNW) 19:24:46 437.465
YUBILEINY 28 Aug 19:44:19 19:51:40 32° 275° (W) 19:58:58 435.215
BRITE-PL 28 Aug 19:51:56 19:54:09 13° 271° (W) 19:56:27 437.365/2234.400
Cubesat XI-IV 28 Aug 19:52:10 19:56:48 30° 263° (W) 20:01:27 437.490
CINEMA 3 28 Aug 19:54:34 19:59:11 38° 72° (ENE) 20:03:45 145.822/145.860
SEEDS 28 Aug 19:59:41 20:02:34 19° 69° (ENE) 20:05:28 437.485
NOAA 15 28 Aug 20:02:52 20:06:21 18° 266° (W) 20:09:52 137.62
CUTE-I 28 Aug 20:04:17 20:08:25 23° 265° (W) 20:12:35 437.470
AIST 1 28 Aug 20:04:32 20:06:36 13° 72° (ENE) 20:08:39
CUBEBUG 2 28 Aug 20:08:01 20:10:19 14° 67° (ENE) 20:12:37 437.445
PCSat 28 Aug 20:12:34 20:14:25 12° 45° (NE) 20:16:16 145.827
CANX-2 28 Aug 20:21:58 20:26:06 60° 75° (ENE) 20:30:14 2200.000
BEESAT 2 28 Aug 20:23:17 20:27:03 40° 246° (WSW) 20:30:47 435.950
AAUSAT CUBESAT 2 28 Aug 20:27:33 20:30:35 20° 70° (ENE) 20:33:38 437.432
CUTE 1.7 + AOD 2 28 Aug 20:27:51 20:31:59 60° 75° (ENE) 20:36:08 437.475
STRAND 1 28 Aug 20:30:03 20:35:05 57° 101° (E) 20:40:06 437.568
COMPASS 1 28 Aug 20:35:56 20:39:38 33° 72° (ENE) 20:43:21 437.405
HO-68 28 Aug 20:37:45 20:44:57 89° 81° (E) 20:52:12 435.675
BEESAT 3 28 Aug 20:41:01 20:42:44 13° 252° (WSW) 20:44:27 437.485
DOVE 4 28 Aug 21:01:18 21:03:52 14° 270° (W) 21:06:29 437.250
AIST 2 28 Aug 21:06:30 21:09:41 21° 51° (NE) 21:12:51 435.215
PRISM 28 Aug 21:11:59 21:14:13 14° 94° (E) 21:16:26 437.425
Cosmos 2504 28 Aug 21:14:29 21:18:46 17° 278° (W) 21:23:04 435.465 / 435.565
Oscar 11 28 Aug 21:18:48 21:22:37 32° 72° (ENE) 21:26:26 145.826/435.025
Cosmos 2491 28 Aug 21:23:58 21:27:14 12° 297° (WNW) 21:30:31 435.465 / 435.565
FUNcube-1 28 Aug 21:27:28 21:31:36 38° 73° (ENE) 21:35:39 145.935
CINEMA 3 28 Aug 21:32:34 21:36:20 21° 266° (W) 21:40:06 145.822/145.860
SEEDS 28 Aug 21:34:24 21:38:02 29° 263° (W) 21:41:41 437.485
UWE-3 28 Aug 21:37:05 21:41:41 89° 78° (ENE) 21:46:12 435.000/436.395/437.385
AIST 1 28 Aug 21:40:14 21:44:25 44° 268° (W) 21:48:33
CUBEBUG 2 28 Aug 21:41:53 21:46:29 53° 260° (W) 21:50:59 437.445
ZACube-1 28 Aug 21:49:13 21:53:41 76° 76° (ENE) 21:58:04 437.345
PCSat 28 Aug 21:53:12 21:58:39 81° 64° (ENE) 22:04:04 145.827
DELFI C3 28 Aug 21:56:15 21:59:46 32° 73° (ENE) 22:03:18 145.870
AAUSAT CUBESAT 2 28 Aug 22:02:27 22:05:53 26° 264° (W) 22:09:20 437.432
GONETS M04 28 Aug 22:05:04 22:09:01 13° 63° (ENE) 22:12:58
STRAND 1 28 Aug 22:10:53 22:13:44 15° 296° (WNW) 22:16:36 437.568
COMPASS 1 28 Aug 22:12:45 22:15:16 16° 267° (W) 22:17:46 437.405
AUBIESAT-1 28 Aug 22:24:20 22:26:27 13° 60° (ENE) 22:28:33 437.475
HUMSAT D 28 Aug 22:26:02 22:29:50 35° 73° (ENE) 22:33:36 437.325/437.525
M-CUBED/EXP-1 PRIME 28 Aug 22:29:47 22:33:00 19° 62° (ENE) 22:36:14 437.505
HO-68 28 Aug 22:30:17 22:33:26 13° 269° (W) 22:36:34 435.675
SO-50 28 Aug 22:43:46 22:46:27 15° 108° (ESE) 22:49:07 436.795
AIST 2 28 Aug 22:44:27 22:48:13 32° 247° (WSW) 22:51:57 435.215
PRISM 28 Aug 22:45:45 22:49:39 38° 287° (WNW) 22:53:31 437.425
Oscar 11 28 Aug 22:55:50 22:58:46 18° 266° (W) 23:01:43 145.826/435.025
ANTELSAT 28 Aug 22:57:23 23:00:44 22° 95° (E) 23:04:03 437.575/2403.000
FUNcube-1 28 Aug 23:05:13 23:07:55 16° 266° (W) 23:10:36 145.935
CUSAT 1 28 Aug 23:15:35 23:16:56 12° 85° (E) 23:18:23 437.405
ESTCUBE 1 28 Aug 23:25:50 23:29:38 28° 70° (ENE) 23:33:27 437.505/2401.250
TIGRISAT 28 Aug 23:27:21 23:31:29 48° 99° (E) 23:35:34 435.000
AISAT 28 Aug 23:30:02 23:32:58 17° 67° (ENE) 23:35:54 437.250
DELFI C3 28 Aug 23:32:29 23:34:41 14° 267° (W) 23:36:53 145.870
PCSat 28 Aug 23:40:15 23:41:16 10° 258° (WSW) 23:42:16 145.827
AUBIESAT-1 28 Aug 23:55:45 00:00:19 64° 254° (WSW) 00:04:56 437.475
UNISAT 6 28 Aug 23:56:19 00:00:35 68° 284° (WNW) 00:04:47 437.425
GONETS M04 28 Aug 23:58:22 00:07:18 79° 84° (E) 00:16:07
50 SAT 29 Aug 00:00:10 00:03:18 30° 73° (ENE) 00:06:28 437.505
M-CUBED/EXP-1 PRIME 29 Aug 00:02:41 00:07:07 44° 257° (WSW) 00:11:37 437.505
HUMSAT D 29 Aug 00:03:08 00:05:32 15° 266° (W) 00:07:55 437.325/437.525
Cosmos 2499 29 Aug 00:12:40 00:19:44 76° 83° (E) 00:26:57 435.465 / 435.565
CUBEBUG 1 29 Aug 00:14:21 00:18:41 64° 75° (ENE) 00:23:04 437.445
QB50P1 29 Aug 00:14:55 00:18:14 22° 96° (E) 00:21:32 145.935-145.965
VELOX 1 29 Aug 00:15:37 00:19:56 53° 74° (ENE) 00:24:17 145.980
O/OREOS (USA 219) 29 Aug 00:16:20 00:20:52 55° 67° (ENE) 00:25:22 437.305
JAS-2 29 Aug 00:20:17 00:25:34 22° 94° (E) 00:31:07 435.910
SO-50 29 Aug 00:21:41 00:26:27 55° 302° (WNW) 00:31:12 436.795
DANDE 29 Aug 00:23:18 00:25:24 22° 93° (E) 00:27:35 436.750
POPSAT HIP 1 29 Aug 00:24:46 00:28:26 29° 97° (E) 00:32:05 437.405
SPROUT 29 Aug 00:26:31 00:30:23 33° 72° (ENE) 00:34:17 437.525
DX 1 29 Aug 00:28:42 00:32:54 50° 74° (ENE) 00:37:09 434.975-435.025
ANTELSAT 29 Aug 00:33:52 00:37:22 25° 290° (WNW) 00:40:51 437.575/2403.000
TISAT 1 29 Aug 00:44:23 00:45:07 10° 65° (ENE) 00:45:51 437.305
DUCHIFAT 1 29 Aug 00:50:36 00:54:43 53° 100° (E) 00:58:47 145.980
QB50P2 29 Aug 00:55:04 00:59:18 77° 101° (ESE) 01:03:29 145.880/145.840
RS-15 29 Aug 00:55:38 01:06:03 44° 107° (ESE) 01:16:58 29.354- 29.394
CUSAT 1 29 Aug 00:56:47 00:58:40 16° 291° (WNW) 01:00:48 437.405
POLYITAN 1 29 Aug 00:57:35 01:01:48 78° 101° (E) 01:05:59 437.675
ESTCUBE 1 29 Aug 01:02:52 01:06:23 23° 265° (W) 01:09:55 437.505/2401.250
AISAT 29 Aug 01:04:59 01:09:06 37° 261° (W) 01:13:16 437.250
NANOSAT C BR1 29 Aug 01:04:59 01:09:13 89° 118° (ESE) 01:13:23 145.865
TIGRISAT 29 Aug 01:05:57 01:07:43 12° 294° (WNW) 01:09:27 435.000
UKube-1 29 Aug 01:06:36 01:10:53 74° 258° (WSW) 01:15:14 .
PHONESAT 2.4 29 Aug 01:10:55 01:13:37 30° 149° (SSE) 01:16:18 2401.200-2431.200
50 SAT 29 Aug 01:35:20 01:36:56 13° 266° (W) 01:38:33 437.505
BUGSAT 1 29 Aug 01:40:24 01:44:32 88° 96° (E) 01:48:36 437.445
QB50P1 29 Aug 01:50:30 01:53:55 25° 290° (WNW) 01:57:19 145.935-145.965
VELOX 1 29 Aug 01:55:13 01:56:40 11° 268° (W) 01:58:08 145.980
ITUPSAT 1 29 Aug 01:56:25 01:58:50 14° 65° (ENE) 02:01:17 437.325
GONETS M04 29 Aug 01:57:29 02:02:59 18° 280° (W) 02:08:28
O/OREOS (USA 219) 29 Aug 01:58:09 01:59:43 12° 262° (W) 02:01:18 437.305
POPSAT HIP 1 29 Aug 02:00:59 02:04:00 19° 291° (WNW) 02:07:00 437.405
SPROUT 29 Aug 02:03:30 02:06:23 17° 266° (W) 02:09:16 437.525
JAS-2 29 Aug 02:03:52 02:10:47 66° 286° (WNW) 02:18:21 435.910
DX 1 29 Aug 02:07:44 02:09:21 12° 268° (W) 02:10:58 434.975-435.025
Cosmos 2499 29 Aug 02:08:28 02:11:55 14° 279° (W) 02:15:24 435.465 / 435.565
TISAT 1 29 Aug 02:16:01 02:20:12 59° 259° (WSW) 02:24:25 437.305
Gurwin Techsat 1B 29 Aug 02:18:34 02:21:39 15° 93° (E) 02:24:43 435.225
SWISSCUBE 29 Aug 02:26:38 02:30:53 33° 70° (ENE) 02:35:07 437.505
DUCHIFAT 1 29 Aug 02:28:45 02:29:53 11° 295° (WNW) 02:31:01 145.980
Oscar 19 29 Aug 02:35:06 02:40:12 53° 100° (E) 02:45:15 437.125/150
BEESAT 29 Aug 02:43:17 02:47:47 45° 73° (ENE) 02:52:19 436.000
PHONESAT 2.4 29 Aug 02:46:57 02:49:53 49° 344° (NNW) 02:52:49 2401.200-2431.200
RS-15 29 Aug 03:07:03 03:18:12 53° 308° (NW) 03:30:00 29.354- 29.394
ITUPSAT 1 29 Aug 03:31:31 03:36:11 54° 259° (W) 03:40:51 437.325
ITAMSAT 1 29 Aug 03:52:29 03:57:16 37° 98° (E) 04:02:02 435.822/435.867
JAS-2 29 Aug 03:53:38 03:54:44 10° 301° (WNW) 03:55:51 435.910
Gurwin Techsat 1B 29 Aug 03:56:42 04:01:53 55° 287° (WNW) 04:07:03 435.225
AO-7 29 Aug 03:58:38 04:05:05 24° 96° (E) 04:11:28 29.400- 29.500
SWISSCUBE 29 Aug 04:05:05 04:08:41 21° 265° (W) 04:12:17 437.505
KKS-1 29 Aug 04:05:30 04:09:34 35° 71° (ENE) 04:13:39 437.445
